This is the latest recevied weather packets stored in our database for station/object W2JGA. If no packets are shown the sender has not sent any weather packets the latest 10 day(s).
| Time | Temp. | Humidity | Pressure | Rain* | Wind** | Luminosity | Snow |
|---|---|---|---|---|---|---|---|
| 1777948577 | 13.89° C | 85% | 1017.6 hPa | 0.76 mm | - | 0 W/m² | - |
| 1777948274 | 14.44° C | 86% | 1017.2 hPa | 0.76 mm | - | 0 W/m² | - |
| 1777947972 | 14.44° C | 86% | 1016.8 hPa | 0.51 mm | - | 0 W/m² | - |
| 1777947668 | 14.44° C | 85% | 1017.2 hPa | 0.51 mm | - | 0 W/m² | - |
| 1777947365 | 14.44° C | 82% | 1017.2 hPa | 0.25 mm | - | 0 W/m² | - |
| 1777947062 | 14.44° C | 82% | 1017.2 hPa | 0.25 mm | - | 0 W/m² | - |
| 1777946762 | 14.44° C | 83% | 1017.2 hPa | 0.25 mm | - | 0 W/m² | - |
| 1777946459 | 15° C | 81% | 1016.8 hPa | 0 mm | - | 0 W/m² | - |
| 1777946156 | 15.56° C | 78% | 1017.2 hPa | 1.27 mm | - | 0 W/m² | - |
| 1777945853 | 16.67° C | 77% | 1017.2 hPa | 1.02 mm | - | 0 W/m² | - |
| 1777945549 | 17.78° C | 66% | 1017.2 hPa | 0.51 mm | - | 0 W/m² | - |
| 1777945247 | 18.33° C | 61% | 1017.2 hPa | 0.25 mm | - | 0 W/m² | - |
| 1777944944 | 18.33° C | 53% | 1016.8 hPa | 0 mm | - | 0 W/m² | - |
| 1777944641 | 18.89° C | 52% | 1017.2 hPa | 0 mm | - | 3 W/m² | - |
| 1777944339 | 18.89° C | 53% | 1016.8 hPa | 0 mm | - | 3 W/m² | - |
| 1777944036 | 18.89° C | 51% | 1016.5 hPa | 0 mm | - | 4 W/m² | - |
| 1777943731 | 18.89° C | 55% | 1016.1 hPa | 0 mm | - | 6 W/m² | - |
| 1777943429 | 18.89° C | 57% | 1016.1 hPa | 0 mm | - | 8 W/m² | - |
| 1777943124 | 18.89° C | 56% | 1016.1 hPa | 0 mm | - | 9 W/m² | - |
| 1777942821 | 18.89° C | 55% | 1015.8 hPa | 0.25 mm | - | 9 W/m² | - |
| 1777942517 | 18.89° C | 57% | 1016.1 hPa | 0.25 mm | - | 9 W/m² | - |
| 1777942215 | 18.89° C | 53% | 1016.1 hPa | 0.25 mm | - | 9 W/m² | - |
| 1777941912 | 18.89° C | 54% | 1016.1 hPa | 0.25 mm | - | 12 W/m² | - |
| 1777941609 | 19.44° C | 52% | 1016.5 hPa | 0.25 mm | - | 13 W/m² | - |
| 1777941306 | 20° C | 52% | 1016.5 hPa | 0.25 mm | - | 17 W/m² | - |
* Rain latest hour (hover to see other rain measurements)
** Current wind speed in m/s (hover to see current wind gust speed)